Weather History for KDRI - February, 2013

Change the Weather History Date:

Monday, February 18, 2013

  Actual Average (KPOE) Record (KPOE)
Temperature  
Mean Temperature 59 °F -  
Max Temperature 68 °F 63 °F 80 °F (2000)
Min Temperature 50 °F 43 °F 29 °F (2015)
Degree Days  
Heating Degree Days 6    
Growing Degree Days 9 (Base 50)    
Moisture  
Dew Point 52 °F    
Average Humidity 77    
Maximum Humidity 94    
Minimum Humidity 56    
Precipitation  
Precipitation 1.03 in - - ()
Sea Level Pressure  
Sea Level Pressure 30.01 in    
Wind  
Wind Speed 9 mph (SSE)    
Max Wind Speed 26 mph    
Max Gust Speed 39 mph    
Visibility 9 miles    
Events Rain , Thunderstorm    
Averages and records for this station are not official NWS values.
T = Trace of Precipitation, MM = Missing Value Source: NWS Daily Summary

Daily Weather History Graph

Daily Weather History Graph

Search for Another Location

Airport or City:

Trip Planner

Search our weather history database for the weather conditions in past years. The results will help you decide how hot, cold, wet, or windy it might be!

Date:

Astronomy

Feb. 18, 2013 Rise Set
Actual Time 6:51 AM CST 6:03 PM CST
Civil Twilight 6:26 AM CST 6:28 PM CST
Nautical Twilight 5:58 AM CST 6:56 PM CST
Astronomical Twilight 5:30 AM CST 7:24 PM CST
Moon 12:01 PM CST (2/18) 1:20 AM CST (2/18)
Length of Visible Light 12h 01m
Length of Day
11h 12m
First Quarter, 58% of the Moon is Illuminated
Feb 18
First Quarter
Feb 25
Full
Mar 4
Last Quarter
Mar 11
New
Mar 19
First Quarter

Hourly Weather History & Observations

Time (CST) Temp. Dew Point Humidity Pressure Visibility Wind Dir Wind Speed Gust Speed Precip Events Conditions
12:15 AM 50.0 °F 42.8 °F 76% 30.14 in 10.0 mi ESE 5.8 mph - N/A   Scattered Clouds
12:35 AM 50.0 °F 42.8 °F 76% 30.14 in 10.0 mi ESE 5.8 mph - N/A   Clear
12:55 AM 50.0 °F 42.8 °F 76% 30.13 in 10.0 mi SE 5.8 mph - N/A   Clear
1:15 AM 50.0 °F 42.8 °F 76% 30.12 in 10.0 mi SE 6.9 mph - N/A   Clear
1:35 AM 50.0 °F 42.8 °F 76% 30.12 in 10.0 mi SE 6.9 mph - N/A   Clear
2:15 AM 50.0 °F 42.8 °F 76% 30.10 in 10.0 mi SE 6.9 mph - N/A   Scattered Clouds
2:35 AM 50.0 °F 42.8 °F 76% 30.09 in 10.0 mi ESE 5.8 mph - N/A   Mostly Cloudy
2:55 AM 50.0 °F 44.6 °F 82% 30.08 in 10.0 mi ESE 6.9 mph - N/A   Overcast
3:15 AM 51.8 °F 44.6 °F 76% 30.08 in 10.0 mi SE 6.9 mph - N/A   Overcast
3:35 AM 51.8 °F 44.6 °F 76% 30.07 in 10.0 mi SE 8.1 mph - N/A   Overcast
3:55 AM 51.8 °F 44.6 °F 76% 30.07 in 10.0 mi SE 8.1 mph - N/A   Overcast
4:15 AM 51.8 °F 44.6 °F 76% 30.07 in 10.0 mi SE 6.9 mph - N/A   Overcast
4:35 AM 51.8 °F 44.6 °F 76% 30.07 in 10.0 mi SE 4.6 mph - N/A   Overcast
4:55 AM 51.8 °F 46.4 °F 82% 30.07 in 10.0 mi SE 5.8 mph - N/A   Overcast
5:35 AM 53.6 °F 46.4 °F 77% 30.07 in 10.0 mi SE 5.8 mph - N/A   Overcast
5:55 AM 53.6 °F 46.4 °F 77% 30.06 in 10.0 mi SE 10.4 mph - N/A   Overcast
6:15 AM 53.6 °F 46.4 °F 77% 30.06 in 10.0 mi SE 5.8 mph - N/A   Overcast
6:35 AM 53.6 °F 46.4 °F 77% 30.05 in 10.0 mi SE 8.1 mph - N/A   Overcast
6:55 AM 53.6 °F 46.4 °F 77% 30.05 in 10.0 mi SE 8.1 mph - N/A   Overcast
7:15 AM 53.6 °F 46.4 °F 77% 30.05 in 10.0 mi SE 6.9 mph - N/A   Overcast
7:35 AM 53.6 °F 46.4 °F 77% 30.05 in 10.0 mi SE 6.9 mph - N/A   Overcast
7:55 AM 55.4 °F 48.2 °F 77% 30.06 in 10.0 mi SE 6.9 mph - N/A   Overcast
8:15 AM 55.4 °F 48.2 °F 77% 30.06 in 10.0 mi SE 9.2 mph - N/A   Overcast
8:35 AM 55.4 °F 50.0 °F 82% 30.06 in 10.0 mi SE 9.2 mph - N/A   Overcast
8:55 AM 57.2 °F 50.0 °F 77% 30.06 in 10.0 mi SE 8.1 mph - N/A   Overcast
9:15 AM 59.0 °F 50.0 °F 72% 30.06 in 10.0 mi SE 9.2 mph - N/A   Overcast
9:35 AM 59.0 °F 50.0 °F 72% 30.07 in 10.0 mi SSE 10.4 mph - N/A   Overcast
10:15 AM 62.6 °F 51.8 °F 68% 30.05 in 10.0 mi SSE 11.5 mph 17.3 mph N/A   Overcast
10:35 AM 64.4 °F 51.8 °F 64% 30.05 in 10.0 mi SSE 12.7 mph 21.9 mph N/A   Overcast
10:55 AM 66.2 °F 51.8 °F 60% 30.04 in 10.0 mi SSE 11.5 mph 20.7 mph N/A   Overcast
11:15 AM 68.0 °F 51.8 °F 56% 30.04 in 10.0 mi South 17.3 mph 26.5 mph N/A   Overcast
11:35 AM 68.0 °F 51.8 °F 56% 30.04 in 10.0 mi SSE 18.4 mph 27.6 mph N/A   Overcast
11:55 AM 68.0 °F 53.6 °F 60% 30.04 in 10.0 mi South 20.7 mph 28.8 mph N/A   Overcast
12:15 PM 68.0 °F 53.6 °F 60% 30.02 in 10.0 mi SSE 24.2 mph 31.1 mph N/A   Overcast
12:35 PM 68.0 °F 53.6 °F 60% 30.01 in 10.0 mi South 24.2 mph 39.1 mph N/A   Overcast
12:55 PM 68.0 °F 53.6 °F 60% 30.00 in 10.0 mi South 23.0 mph 34.5 mph N/A   Overcast
1:15 PM 68.0 °F 53.6 °F 60% 29.98 in 10.0 mi SSE 26.5 mph 33.4 mph N/A   Overcast
1:35 PM 68.0 °F 53.6 °F 60% 29.96 in 10.0 mi South 24.2 mph 35.7 mph N/A   Overcast
1:55 PM 68.0 °F 53.6 °F 60% 29.96 in 10.0 mi South 20.7 mph 26.5 mph N/A   Overcast
2:15 PM 68.0 °F 53.6 °F 60% 29.94 in 10.0 mi SSE 17.3 mph 27.6 mph N/A   Overcast
2:35 PM 68.0 °F 53.6 °F 60% 29.93 in 10.0 mi South 17.3 mph 28.8 mph N/A   Overcast
2:55 PM 68.0 °F 55.4 °F 64% 29.91 in 10.0 mi SSE 11.5 mph 25.3 mph N/A   Overcast
3:15 PM 68.0 °F 55.4 °F 64% 29.92 in 10.0 mi SSE 19.6 mph 27.6 mph N/A Thunderstorm Thunderstorm
3:35 PM 68.0 °F 55.4 °F 64% 29.91 in 10.0 mi South 13.8 mph 24.2 mph N/A Thunderstorm Thunderstorm
3:55 PM 64.4 °F 59.0 °F 83% 29.91 in 7.0 mi South 17.3 mph 26.5 mph N/A Rain Light Rain
4:15 PM 64.4 °F 59.0 °F 83% 29.92 in 4.0 mi South 13.8 mph 27.6 mph 0.03 in Rain , Thunderstorm Thunderstorms and Rain
4:35 PM 62.6 °F 59.0 °F 88% 29.91 in 5.0 mi SSE 10.4 mph 18.4 mph 0.09 in Rain Rain
4:55 PM 62.6 °F 59.0 °F 88% 29.91 in 5.0 mi SSE 8.1 mph - 0.16 in Rain Rain
5:15 PM 62.6 °F 59.0 °F 88% 29.88 in 2.5 mi ESE 6.9 mph - 0.12 in Rain , Thunderstorm Thunderstorms and Rain
5:35 PM 62.6 °F 59.0 °F 88% 29.90 in 3.0 mi SSE 11.5 mph 18.4 mph 0.23 in Rain , Thunderstorm Heavy Thunderstorms and Rain
5:55 PM 62.6 °F 59.0 °F 88% 29.88 in 5.0 mi SE 11.5 mph - 0.26 in Rain Rain
6:15 PM 62.6 °F 60.8 °F 94% 29.91 in 4.0 mi SW 8.1 mph - 0.09 in Rain , Thunderstorm Rain
6:35 PM 62.6 °F 59.0 °F 88% 29.91 in 10.0 mi SW 12.7 mph 18.4 mph 0.10 in   Overcast
6:55 PM 64.4 °F 59.0 °F 83% 29.93 in 10.0 mi SSW 12.7 mph 18.4 mph 0.10 in   Overcast
7:15 PM 62.6 °F 59.0 °F 88% 29.93 in 10.0 mi South 8.1 mph - N/A Rain Rain
7:35 PM 62.6 °F 60.8 °F 94% 29.92 in 4.0 mi SSW 6.9 mph - 0.25 in Rain , Thunderstorm Thunderstorms and Rain
7:55 PM 62.6 °F 60.8 °F 94% 29.92 in 7.0 mi Calm Calm - 0.28 in Rain Light Rain
8:15 PM 62.6 °F 60.8 °F 94% 29.94 in 3.0 mi SW 10.4 mph - 0.10 in Rain Heavy Rain
8:35 PM 62.6 °F 60.8 °F 94% 29.94 in 10.0 mi SSW 8.1 mph - 0.11 in   Overcast
8:55 PM 62.6 °F 60.8 °F 94% 29.94 in 10.0 mi SSW 8.1 mph - 0.11 in   Overcast
9:15 PM 62.6 °F 60.8 °F 94% 29.95 in 10.0 mi SSW 6.9 mph - N/A   Overcast
9:35 PM 62.6 °F 60.8 °F 94% 29.95 in 10.0 mi SSW 8.1 mph - N/A   Overcast
9:55 PM 62.6 °F 60.8 °F 94% 29.96 in 10.0 mi SSW 9.2 mph - N/A   Mostly Cloudy
10:15 PM 62.6 °F 60.8 °F 94% 29.96 in 10.0 mi SSW 8.1 mph - N/A Thunderstorm Mostly Cloudy
10:35 PM 62.6 °F 55.4 °F 77% 30.01 in 10.0 mi NW 19.6 mph 27.6 mph N/A Rain , Thunderstorm Rain
10:55 PM 59.0 °F 53.6 °F 82% 30.01 in 7.0 mi Calm Calm - 0.10 in Rain Rain
11:15 PM 59.0 °F 55.4 °F 88% 30.01 in 10.0 mi WNW 5.8 mph - 0.02 in Rain , Thunderstorm Light Thunderstorms and Rain
11:55 PM 59.0 °F 53.6 °F 82% 30.04 in 10.0 mi West 8.1 mph - 0.02 in   Overcast